F1ZFG-13 Weather Reports


time (UTC)temp
F
wind
direction
speed
knots
gust
knots
rain 1hr
in
rain 24hr
in
rain mn
in
humidity
%
barometer
mb
20260507071553 49 338 2.6 0.0 0.00 0.00 0.00 91 1015.3
20260507061938 46 327 2.6 0.0 0.00 0.00 0.00 95 1014.9
20260507052439 44 303 1.7 0.0 0.00 0.00 0.00 98 1014.3
20260507042536 43 295 1.7 0.0 0.00 0.00 0.00 99 1014.0
20260507033353 43 297 1.7 0.0 0.00 0.00 0.00 99 1013.7
20260507024454 44 303 1.7 0.0 0.00 0.00 0.00 99 1013.6
20260507015050 44 285 0.9 0.0 0.00 0.00 0.00 99 1013.8
20260507005143 45 331 1.7 0.0 0.00 0.00 0.00 96 1013.1
20260506235254 46 302 1.7 0.0 0.00 0.00 0.00 95 1013.1
20260506230014 46 302 1.7 0.0 0.00 0.00 0.00 95 1013.1
20260506220714 48 292 1.7 0.0 0.00 0.00 0.00 93 1012.6
20260506211230 49 296 1.7 0.0 0.00 0.00 0.00 89 1012.4
20260506201408 51 244 1.7 0.0 0.00 0.00 0.00 85 1012.0
20260506192313 52 226 1.7 0.0 0.00 0.00 0.00 82 1011.2
20260506183045 53 302 3.5 0.0 0.00 0.00 0.00 77 1010.6
20260506173958 56 245 2.6 0.0 0.00 0.00 0.00 69 1009.6
20260506165053 58 210 3.5 0.0 0.00 0.01 0.00 64 1009.3
20260506155120 56 197 4.3 0.0 0.00 0.01 0.00 70 1009.5
20260506145505 54 191 6.1 0.0 0.00 0.01 0.00 76 1010.3
20260506135852 57 165 5.2 0.0 0.02 0.03 0.00 68 1010.3
20260506125935 55 166 4.3 0.0 0.00 0.06 0.00 77 1010.3
20260506120434 55 166 4.3 0.0 0.00 0.06 0.00 77 1010.3
20260506111408 53 167 4.3 0.0 0.00 0.06 0.00 84 1010.9
20260506102243 51 183 2.6 0.0 0.00 0.07 0.00 89 1010.7
20260506092858 51 208 2.6 0.0 0.02 0.07 0.00 88 1010.2
20260506083700 50 274 4.3 0.0 0.02 0.08 0.00 90 1009.7